Hourly Weather Roundup
Issued by NWS Central Illinois

Home | Current Version | Previous Version | Text Only | Print | Product List | Glossary On
Versions: 1 2 3 4 5 6 7 8 9 10 11 12 13 14 15 16 17 18 19 20 21 22 23 24 25 26 27 28 29 30 31 32 33 34 35 36 37 38 39 40 41 42 43 44 45 46 47 48 49 50
000
NZUS43 KILX 281510
HWRILX

AREA WEATHER ROUNDUP
NATIONAL WEATHER SERVICE, LINCOLN IL
900 AM CST SUN DEC 28 2014


CITY           SKY/WX    TMP DP  RH WIND       PRES   REMARKS
BLOOMINGTON    CLOUDY    24  20  85 W8        30.23R WCI  15
CHAMPAIGN      CLOUDY    27  20  75 NW10      30.22R WCI  17
DECATUR        CLOUDY    28  21  75 NW9       30.23R WCI  19
FLORA          CLOUDY    31  27  83 N5        30.24S WCI  27
GALESBURG      MOSUNNY   22  19  88 W3        30.22R
JACKSONVILLE   CLOUDY    30  23  73 CALM      30.25R
LACON          PTSUNNY   23  18  83 SW5       30.23R WCI  16
LAWRENCEVILLE  CLOUDY    33  28  81 N9        30.23R WCI  25
LITCHFIELD     CLOUDY    28  22  78 NW6       30.24R WCI  22
$$


CITY           SKY/WX    TMP DP  RH WIND       PRES   REMARKS
LINCOLN        CLOUDY    28  22  80 NW3       30.26R
MACOMB         PTSUNNY   26  22  87 W3        30.26R
MATTOON        CLOUDY    28  23  81 N10       30.22R WCI  19
MT CARMEL AP   CLOUDY    34  30  86 NW9       30.22F WCI  26
OLNEY-NOBLE AP CLOUDY    32  28  86 N6        30.24S WCI  26
PARIS          CLOUDY    29  27  90 NW5       30.22S WCI  24
PEORIA         PTSUNNY   24  18  77 CALM      30.23S
PONTIAC        CLOUDY    24  19  83 W7        30.23R WCI  15
RANTOUL        CLOUDY    27  20  75 NW10      30.21S WCI  17
ROBINSON       CLOUDY    32  28  87 N7        30.24R WCI  25
SPRINGFIELD    CLOUDY    30  22  72 W5        30.25R WCI  25
TAYLORVILLE    CLOUDY    28  23  80 N7        30.24S WCI  21
$$

...REGIONAL REPORTS...


CITY           SKY/WX    TMP DP  RH WIND       PRES   REMARKS
CHICAGO O`HARE PTSUNNY   23  17  78 W6        30.17R WCI  16
KANKAKEE       CLOUDY    26  22  84 W8        30.21R WCI  17
MOLINE         SUNNY     20  16  84 SW5       30.22R WCI  13
MOUNT VERNON   CLOUDY    30  23  74 CALM      30.24S
PITTSFIELD     CLOUDY    29  23  79 CALM      30.26R
QUINCY         PTSUNNY   27  22  81 W6        30.24R WCI  20
ROCKFORD       MOSUNNY   21  15  78 W6        30.20R WCI  13
$$


CITY           SKY/WX    TMP DP  RH WIND       PRES   REMARKS
BURLINGTON     MOSUNNY   24  20  84 W5        30.22R WCI  18
CEDAR RAPIDS   SUNNY     17  16  95 S6        30.18R WCI   9
DES MOINES     MOSUNNY   19  15  84 S5        30.16R WCI  12
KIRKSVILLE     MOSUNNY   21  20  96 SW5       30.23R WCI  15
OTTUMWA        SUNNY     20  17  88 SW6       30.20R WCI  12
ST LOUIS       CLOUDY    32  24  72 NW6       30.25S WCI  26
$$


CITY           SKY/WX    TMP DP  RH WIND       PRES   REMARKS
TERRE HAUTE    CLOUDY    30  24  78 NW9       30.22R WCI  22
EVANSVILLE     CLOUDY    35  28  75 N9        30.23R WCI  28
INDIANAPOLIS   CLOUDY    29  25  85 NW9       30.19R WCI  20
LAFAYETTE      CLOUDY    27  22  81 NW7       30.21R WCI  19
MADISON        MOSUNNY   21  13  71 VRB5      30.15R WCI  15
MILWAUKEE      MOSUNNY   24  14  65 W7        30.14R WCI  16
$$





USA.gov is the U.S. government's official web portal to all federal, state and local government web resources and services.